La Crosse, VA

7:26 PM EDT on July 25, 2016 (GMT -0400)
Mecklenburg-Brunswick Regional

Weather History for KAVC - May, 2014

Change the Weather History Date:

Friday, May 2, 2014

  Actual Average (KEMV) Record (KEMV)
Temperature  
Mean Temperature 60 °F -  
Max Temperature 69 °F 79 °F 90 °F (1986)
Min Temperature 51 °F 51 °F 37 °F (2005)
Degree Days  
Heating Degree Days 5    
Growing Degree Days 10 (Base 50)    
Moisture  
Dew Point 45 °F    
Average Humidity 57    
Maximum Humidity 100    
Minimum Humidity 32    
Precipitation  
Precipitation 0.00 in - - ()
Sea Level Pressure  
Sea Level Pressure 29.93 in    
Wind  
Wind Speed 4 mph (SW)    
Max Wind Speed 12 mph    
Max Gust Speed 20 mph    
Visibility 10 miles    
Events      
Averages and records for this station are not official NWS values.
T = Trace of Precipitation, MM = Missing Value Source: NWS Daily Summary

Daily Weather History Graph

Daily Weather History Graph

Search for Another Location

Airport or City:

Trip Planner

Search our weather history database for the weather conditions in past years. The results will help you decide how hot, cold, wet, or windy it might be!

Date:

Astronomy

May. 02, 2014 Rise Set
Actual Time 6:17 AM EDT 8:01 PM EDT
Civil Twilight 5:49 AM EDT 8:29 PM EDT
Nautical Twilight 5:15 AM EDT 9:03 PM EDT
Astronomical Twilight 4:40 AM EDT 9:38 PM EDT
Moon 8:54 AM EDT (5/2) 11:20 PM EDT (5/2)
Length of Visible Light 14h 39m
Length of Day
13h 44m
Waxing Crescent, 12% of the Moon is Illuminated
May 2
Waxing Crescent
May 6
First Quarter
May 14
Full
May 21
Last Quarter
May 28
New

Hourly Weather History & Observations

Time (EDT) Temp. Dew Point Humidity Pressure Visibility Wind Dir Wind Speed Gust Speed Precip Events Conditions
12:20 AM 64.4 °F 64.4 °F 100% 29.85 in 10.0 mi SW 4.6 mph - N/A   Clear
12:40 AM 64.4 °F 64.4 °F 100% 29.86 in 10.0 mi SSW 3.5 mph - N/A   Clear
12:55 AM 62.6 °F 62.6 °F 100% 29.86 in 10.0 mi SSW 3.5 mph - N/A   Clear
1:15 AM 62.6 °F 62.6 °F 100% 29.87 in 10.0 mi SW 3.5 mph - N/A   Clear
1:35 AM 62.6 °F 62.6 °F 100% 29.87 in 10.0 mi SW 4.6 mph - N/A   Clear
1:55 AM 62.6 °F 62.6 °F 100% 29.87 in 10.0 mi SW 4.6 mph - N/A   Clear
2:15 AM 62.6 °F 60.8 °F 94% 29.88 in 10.0 mi WSW 3.5 mph - N/A   Clear
2:35 AM 62.6 °F 59.0 °F 88% 29.88 in 10.0 mi Calm Calm - N/A   Clear
2:55 AM 60.8 °F 53.6 °F 77% 29.89 in 10.0 mi West 3.5 mph - N/A   Clear
3:15 AM 60.8 °F 51.8 °F 72% 29.90 in 10.0 mi WNW 3.5 mph - N/A   Clear
3:35 AM 57.2 °F 48.2 °F 72% 29.91 in 10.0 mi NNW 4.6 mph - N/A   Scattered Clouds
3:55 AM 59.0 °F 46.4 °F 63% 29.91 in 10.0 mi Calm Calm - N/A   Mostly Cloudy
4:15 AM 59.0 °F 46.4 °F 63% 29.92 in 10.0 mi Calm Calm - N/A   Overcast
4:35 AM 55.4 °F 46.4 °F 72% 29.92 in 10.0 mi Calm Calm - N/A   Mostly Cloudy
4:55 AM 53.6 °F 46.4 °F 77% 29.93 in 10.0 mi Calm Calm - N/A   Scattered Clouds
5:15 AM 53.6 °F 46.4 °F 77% 29.93 in 10.0 mi Calm Calm - N/A   Clear
5:35 AM 55.4 °F 46.4 °F 72% 29.94 in 10.0 mi Calm Calm - N/A   Clear
5:55 AM 51.8 °F 46.4 °F 82% 29.94 in 10.0 mi Calm Calm - N/A   Clear
6:15 AM 51.8 °F 46.4 °F 82% 29.95 in 10.0 mi Calm Calm - N/A   Clear
6:35 AM 51.8 °F 46.4 °F 82% 29.95 in 10.0 mi Calm Calm - N/A   Clear
6:55 AM 55.4 °F 44.6 °F 67% 29.96 in 10.0 mi Calm Calm - N/A   Clear
7:15 AM 57.2 °F 44.6 °F 63% 29.97 in 10.0 mi Calm Calm - N/A   Clear
7:35 AM 57.2 °F 44.6 °F 63% 29.97 in 10.0 mi WNW 3.5 mph - N/A   Clear
7:55 AM 59.0 °F 44.6 °F 59% 29.97 in 10.0 mi Calm Calm - N/A   Clear
8:15 AM 60.8 °F 42.8 °F 52% 29.97 in 10.0 mi Calm Calm - N/A   Clear
8:35 AM 62.6 °F 44.6 °F 52% 29.98 in 10.0 mi Calm Calm - N/A   Clear
8:55 AM 62.6 °F 44.6 °F 52% 29.98 in 10.0 mi NW 3.5 mph - N/A   Clear
9:15 AM 64.4 °F 41.0 °F 42% 29.97 in 10.0 mi NW 3.5 mph - N/A   Clear
9:35 AM 66.2 °F 39.2 °F 37% 29.98 in 10.0 mi WNW 5.8 mph - N/A   Clear
9:55 AM 66.2 °F 39.2 °F 37% 29.97 in 10.0 mi WNW 6.9 mph - N/A   Clear
10:15 AM 66.2 °F 37.4 °F 35% 29.98 in 10.0 mi NW 6.9 mph - N/A   Clear
10:35 AM 66.2 °F 35.6 °F 32% 29.99 in 10.0 mi NW 4.6 mph - N/A   Clear
10:55 AM 66.2 °F 35.6 °F 32% 29.98 in 10.0 mi NW 4.6 mph - N/A   Clear
11:15 AM 66.2 °F 37.4 °F 35% 29.98 in 10.0 mi NW 5.8 mph - N/A   Clear
11:35 AM 66.2 °F 37.4 °F 35% 29.98 in 10.0 mi West 5.8 mph - N/A   Clear
11:55 AM 66.2 °F 37.4 °F 35% 29.98 in 10.0 mi West 4.6 mph - N/A   Clear
12:15 PM 64.4 °F 39.2 °F 40% 29.99 in 10.0 mi West 3.5 mph - N/A   Clear
12:35 PM 64.4 °F 37.4 °F 37% 29.98 in 10.0 mi West 4.6 mph - N/A   Clear
12:55 PM 64.4 °F 39.2 °F 40% 29.97 in 10.0 mi SW 4.6 mph - N/A   Clear
1:15 PM 64.4 °F 39.2 °F 40% 29.95 in 10.0 mi WSW 5.8 mph - N/A   Clear
1:35 PM 64.4 °F 39.2 °F 40% 29.94 in 10.0 mi West 3.5 mph - N/A   Clear
1:55 PM 66.2 °F 37.4 °F 35% 29.93 in 10.0 mi West 3.5 mph - N/A   Clear
2:20 PM 66.2 °F 39.2 °F 37% 29.93 in 10.0 mi West 5.8 mph - N/A   Clear
2:40 PM 64.4 °F 37.4 °F 37% 29.93 in 10.0 mi SW 5.8 mph - N/A   Clear
2:55 PM 66.2 °F 39.2 °F 37% 29.93 in 10.0 mi SSW 11.5 mph - N/A   Clear
3:15 PM 68.0 °F 39.2 °F 35% 29.93 in 10.0 mi SSW 10.4 mph 16.1 mph N/A   Clear
3:35 PM 66.2 °F 39.2 °F 37% 29.93 in 10.0 mi South 5.8 mph - N/A   Clear
3:55 PM 69.8 °F 41.0 °F 35% 29.93 in 10.0 mi SW 8.1 mph - N/A   Clear
4:15 PM 69.8 °F 41.0 °F 35% 29.92 in 10.0 mi SSW 8.1 mph - N/A   Scattered Clouds
4:35 PM 69.8 °F 41.0 °F 35% 29.92 in 10.0 mi WSW 5.8 mph 19.6 mph N/A   Clear
4:55 PM 68.0 °F 39.2 °F 35% 29.92 in 10.0 mi WSW 5.8 mph - N/A   Clear
5:15 PM 68.0 °F 41.0 °F 37% 29.91 in 10.0 mi WSW 4.6 mph - N/A   Clear
5:35 PM 69.8 °F 41.0 °F 35% 29.92 in 10.0 mi South 5.8 mph - N/A   Clear
5:55 PM 69.8 °F 42.8 °F 38% 29.92 in 10.0 mi SSW 9.2 mph - N/A   Clear
6:15 PM 69.8 °F 41.0 °F 35% 29.92 in 10.0 mi SSW 9.2 mph - N/A   Clear
6:35 PM 69.8 °F 41.0 °F 35% 29.91 in 10.0 mi SSW 4.6 mph - N/A   Clear
6:55 PM 68.0 °F 42.8 °F 40% 29.91 in 10.0 mi South 8.1 mph - N/A   Clear
7:15 PM 66.2 °F 42.8 °F 43% 29.92 in 10.0 mi South 4.6 mph - N/A   Clear
7:35 PM 64.4 °F 44.6 °F 49% 29.92 in 10.0 mi SSE 3.5 mph - N/A   Clear
7:55 PM 62.6 °F 46.4 °F 55% 29.93 in 10.0 mi South 3.5 mph - N/A   Clear
8:15 PM 60.8 °F 46.4 °F 59% 29.92 in 10.0 mi SSE 3.5 mph - N/A   Clear
8:35 PM 60.8 °F 44.6 °F 55% 29.91 in 10.0 mi SSE 5.8 mph - N/A   Clear
8:55 PM 60.8 °F 44.6 °F 55% 29.92 in 10.0 mi SSE 4.6 mph - N/A   Clear
9:15 PM 57.2 °F 46.4 °F 67% 29.92 in 10.0 mi South 4.6 mph - N/A   Clear
9:35 PM 57.2 °F 46.4 °F 67% 29.93 in 10.0 mi South 3.5 mph - N/A   Clear
9:55 PM 57.2 °F 46.4 °F 67% 29.93 in 10.0 mi South 3.5 mph - N/A   Clear
10:15 PM 57.2 °F 46.4 °F 67% 29.94 in 10.0 mi South 3.5 mph - N/A   Clear
10:35 PM 57.2 °F 46.4 °F 67% 29.94 in 10.0 mi South 3.5 mph - N/A   Clear
10:55 PM 57.2 °F 46.4 °F 67% 29.94 in 10.0 mi Calm Calm - N/A   Clear
11:15 PM 55.4 °F 48.2 °F 77% 29.94 in 10.0 mi Calm Calm - N/A   Clear
11:35 PM 55.4 °F 46.4 °F 72% 29.94 in 10.0 mi Calm Calm - N/A   Clear
11:55 PM 55.4 °F 46.4 °F 72% 29.94 in 10.0 mi SSW 3.5 mph - N/A   Clear